Location: Sommers-Bausch Observatory
(40.0037°N, 105.2635°W)
Time: 13:53:35
(UTC-06:00)

Amateur Radio Satellites - All Passes

Search period start: 31 May 2016 13:23
Search period end: 01 June 2016 13:23
Location: Sommers-Bausch Observatory, 40.0037°N, 105.2635°W

Satellite Date Start Highest point End Downlink Frequencies (MHz)
Time Altitude Azimuth
DX 1 31 May 13:27:00 13:31:08 43° 288° (WNW) 13:35:13 434.975-435.025
CUBEBUG 1 31 May 13:29:06 13:32:59 32° 290° (WNW) 13:36:50 437.445
SPROUT 31 May 13:35:46 13:40:00 68° 285° (WNW) 13:44:12 437.525
TISAT 1 31 May 13:43:59 13:47:51 36° 98° (E) 13:51:41 437.305
ESTCUBE 1 31 May 13:44:48 13:47:49 18° 295° (WNW) 13:50:48 437.505/2401.250
50 SAT 31 May 13:46:30 13:48:37 15° 294° (WNW) 13:50:45 437.505
VELOX 1 31 May 13:48:00 13:51:27 23° 293° (WNW) 13:54:52 145.980
JAS-2 31 May 13:57:25 14:04:25 43° 264° (W) 14:11:50 435.910
CUSAT 1 31 May 14:00:27 14:03:07 12° 305° (NW) 14:05:52 437.405
ITAMSAT 1 31 May 14:03:01 14:07:09 25° 65° (ENE) 14:11:18 435.822/435.867
Gurwin Techsat 1B 31 May 14:08:10 14:13:26 70° 74° (ENE) 14:18:44 435.225
UKube-1 31 May 14:08:50 14:11:57 20° 294° (WNW) 14:15:04 .
AO-7 31 May 14:25:01 14:31:50 29° 57° (ENE) 14:38:38 29.400- 29.500
DANDE 31 May 14:34:18 14:36:37 12° 307° (NW) 14:39:04 436.750
AIST 2 31 May 14:38:20 14:40:47 15° 317° (NW) 14:43:14 435.215
Oscar 19 31 May 14:51:42 14:55:26 20° 267° (W) 14:59:12 437.125/150
YUBILEINY 31 May 14:52:04 14:58:28 24° 81° (E) 15:04:52 435.215
Cosmos 2491 31 May 14:52:24 15:01:00 57° 78° (ENE) 15:09:31 435.465 / 435.565
SWISSCUBE 31 May 14:54:15 14:58:51 43° 99° (E) 15:03:25 437.505
AO-85 31 May 14:58:43 15:03:02 41° 245° (WSW) 15:06:58 145.980
ITUPSAT 1 31 May 15:02:48 15:07:27 47° 100° (E) 15:12:05 437.325
TISAT 1 31 May 15:20:23 15:23:13 18° 294° (WNW) 15:26:03 437.305
BEESAT 31 May 15:23:17 15:28:07 79° 104° (ESE) 15:32:54 436.000
RS-15 31 May 15:29:55 15:38:32 26° 101° (E) 15:47:27 29.354- 29.394
HORYU 2 31 May 15:35:17 15:36:11 11° 61° (ENE) 15:37:05 437.375
ITAMSAT 1 31 May 15:41:32 15:46:22 40° 261° (W) 15:51:15 435.822/435.867
Gurwin Techsat 1B 31 May 15:51:13 15:53:52 14° 270° (W) 15:56:32 435.225
MOZHAYETS 4 31 May 15:56:09 15:59:09 17° 92° (E) 16:02:08
AO-7 31 May 16:15:46 16:23:59 66° 255° (WSW) 16:32:17 29.400- 29.500
SWISSCUBE 31 May 16:32:51 16:36:19 20° 295° (WNW) 16:39:47 437.505
ITUPSAT 1 31 May 16:41:35 16:44:55 19° 296° (WNW) 16:48:14 437.325
KKS-1 31 May 16:44:00 16:48:25 70° 102° (ESE) 16:52:49 437.445
YUBILEINY 31 May 16:45:44 16:54:22 70° 280° (W) 17:03:05 435.215
NOAA 15 31 May 16:45:46 16:48:29 14° 60° (ENE) 16:51:11 137.62
Cosmos 2491 31 May 16:50:05 16:57:16 30° 277° (W) 17:04:26 435.465 / 435.565
Cosmos 2504 31 May 16:54:23 17:00:56 38° 87° (E) 17:07:51 435.465 / 435.565
BEESAT 31 May 17:03:31 17:05:13 12° 300° (WNW) 17:06:54 436.000
Cubesat XI-IV 31 May 17:06:35 17:09:30 15° 60° (ENE) 17:12:25 437.490
STARS 31 May 17:07:28 17:11:48 63° 101° (E) 17:16:07 437.465
HORYU 2 31 May 17:07:41 17:12:06 76° 258° (WSW) 17:16:31 437.375
LilacSat-2 31 May 17:31:47 17:34:00 15° 67° (ENE) 17:36:13 437.200
MOZHAYETS 4 31 May 17:32:06 17:36:32 46° 287° (WNW) 17:40:57
CUBESAT XI-V 31 May 17:33:18 17:36:50 21° 93° (E) 17:40:19 437.345
BRITE-PL 31 May 17:35:11 17:40:09 32° 68° (ENE) 17:45:04 437.365/2234.400
RS-15 31 May 17:38:08 17:49:29 82° 303° (WNW) 18:01:34 29.354- 29.394
GOMX 1 31 May 17:38:36 17:41:55 17° 64° (ENE) 17:45:11 467.674
NOAA 18 31 May 17:39:14 17:44:11 37° 68° (ENE) 17:49:10 137.9125
CUTE-I 31 May 17:49:05 17:53:53 36° 68° (ENE) 17:58:43 437.470
PCSat 31 May 17:57:35 18:02:50 48° 56° (NE) 18:08:04 145.827
DOVE 4 31 May 18:05:34 18:07:59 14° 63° (ENE) 18:10:22 437.250
O/OREOS (USA 219) 31 May 18:08:21 18:12:07 26° 60° (ENE) 18:15:52 437.305
AO-7 31 May 18:17:38 18:18:13 10° 274° (W) 18:18:49 29.400- 29.500
NOAA 15 31 May 18:22:15 18:27:34 78° 257° (WSW) 18:32:54 137.62
KKS-1 31 May 18:22:55 18:24:23 12° 298° (WNW) 18:25:52 437.445
BEESAT 2 31 May 18:33:28 18:34:52 11° 41° (NE) 18:36:15 435.950
HO-68 31 May 18:40:31 18:45:22 20° 56° (ENE) 18:50:13 435.675
Cubesat XI-IV 31 May 18:43:38 18:48:55 73° 258° (WSW) 18:54:16 437.490
STARS 31 May 18:45:52 18:47:37 12° 298° (WNW) 18:49:23 437.465
Cosmos 2504 31 May 18:47:34 18:54:14 38° 287° (WNW) 19:01:20 435.465 / 435.565
YUBILEINY 31 May 18:49:14 18:52:58 13° 302° (WNW) 18:56:43 435.215
BEESAT 3 31 May 18:57:37 19:01:07 29° 51° (NE) 19:04:34 437.485
LilacSat-2 31 May 19:04:31 19:08:00 35° 262° (W) 19:11:31 437.200
STRAND 1 31 May 19:04:58 19:07:44 14° 91° (E) 19:10:29 437.568
CUBESAT XI-V 31 May 19:09:58 19:14:20 38° 289° (WNW) 19:18:39 437.345
BRITE-PL 31 May 19:13:15 19:18:27 36° 264° (W) 19:23:39 437.365/2234.400
GOMX 1 31 May 19:14:01 19:19:27 68° 259° (W) 19:24:46 467.674
NOAA 18 31 May 19:20:15 19:24:53 28° 264° (W) 19:29:32 137.9125
AUBIESAT-1 31 May 19:22:03 19:25:18 25° 66° (ENE) 19:28:22 437.475
CUTE-I 31 May 19:29:29 19:33:57 28° 265° (W) 19:38:29 437.470
M-CUBED/EXP-1 PRIME 31 May 19:32:17 19:36:06 41° 68° (ENE) 19:39:39 437.505
CINEMA 3 31 May 19:37:50 19:41:56 31° 71° (ENE) 19:45:53 145.822/145.860
DOVE 4 31 May 19:39:56 19:45:07 75° 257° (WSW) 19:50:04 437.250
PCSat 31 May 19:41:43 19:45:53 23° 253° (WSW) 19:50:03 145.827
O/OREOS (USA 219) 31 May 19:47:38 19:51:29 29° 256° (WSW) 19:55:18 437.305
SEEDS 31 May 19:47:39 19:51:05 25° 69° (ENE) 19:54:31 437.485
ISS 31 May 19:50:29 19:53:37 47° 138° (SE) 19:56:47 145.825
CANX-2 31 May 19:53:41 19:57:42 46° 73° (ENE) 20:01:46 2200.000
RS-15 31 May 19:54:18 20:04:08 30° 330° (NNW) 20:14:24 29.354- 29.394
CUBEBUG 2 31 May 19:57:49 20:00:18 15° 66° (ENE) 20:02:47 437.445
BEESAT 2 31 May 20:09:16 20:13:17 86° 238° (WSW) 20:17:15 435.950
UWE-3 31 May 20:16:17 20:18:59 17° 66° (ENE) 20:21:37 435.000/436.395/437.385
CUTE 1.7 + AOD 2 31 May 20:19:49 20:24:00 83° 80° (E) 20:28:16 437.475
PRISM 31 May 20:22:03 20:23:50 12° 92° (E) 20:25:37 437.425
AAUSAT CUBESAT 2 31 May 20:22:33 20:26:17 34° 71° (ENE) 20:30:05 437.432
COMPASS 1 31 May 20:24:26 20:28:24 46° 73° (ENE) 20:32:24 437.405
HO-68 31 May 20:25:06 20:32:15 82° 255° (WSW) 20:39:27 435.675
PHONESAT 2.4 31 May 20:33:17 20:36:12 35° 157° (SSE) 20:39:07 2401.200-2431.200
BEESAT 3 31 May 20:35:28 20:38:40 24° 247° (WSW) 20:41:51 437.485
STRAND 1 31 May 20:42:13 20:47:20 65° 287° (WNW) 20:52:25 437.568
GONETS M04 31 May 20:42:20 20:49:27 29° 83° (E) 20:56:31
Oscar 11 31 May 20:43:20 20:46:50 25° 69° (ENE) 20:50:21 145.826/435.025
AIST 1 31 May 20:47:14 20:51:30 51° 94° (E) 20:55:47
AUBIESAT-1 31 May 20:56:31 20:59:44 23° 258° (WSW) 21:02:47 437.475
ZACube-1 31 May 21:06:24 21:10:17 38° 72° (ENE) 21:14:09 437.345
M-CUBED/EXP-1 PRIME 31 May 21:08:29 21:10:45 14° 260° (W) 21:12:56 437.505
CUSAT 1 31 May 21:08:40 21:13:38 19° 60° (ENE) 21:18:01 437.405
CINEMA 3 31 May 21:15:18 21:19:03 24° 265° (W) 21:22:43 145.822/145.860
Cosmos 2499 31 May 21:16:04 21:21:44 25° 82° (E) 21:27:43 435.465 / 435.565
AIST 2 31 May 21:19:54 21:23:43 33° 52° (NE) 21:27:29 435.215
SEEDS 31 May 21:23:13 21:26:42 25° 265° (W) 21:30:13 437.485
ISS 31 May 21:27:29 21:30:13 24° 335° (NNW) 21:32:57 145.825
CANX-2 31 May 21:31:38 21:33:48 14° 269° (W) 21:36:00 2200.000
CUBEBUG 2 31 May 21:32:26 21:36:36 45° 261° (W) 21:40:41 437.445
FUNcube-1 31 May 21:41:30 21:45:42 87° 255° (WSW) 21:49:52 145.935
DANDE 31 May 21:44:22 21:50:29 22° 62° (ENE) 21:56:05 436.750
DELFI C3 31 May 21:48:21 21:52:15 61° 75° (ENE) 21:56:12 145.870
UWE-3 31 May 21:51:07 21:55:08 40° 261° (W) 21:59:06 435.000/436.395/437.385
PRISM 31 May 21:55:23 21:59:26 50° 287° (WNW) 22:03:27 437.425
AAUSAT CUBESAT 2 31 May 21:59:02 22:01:52 18° 267° (W) 22:04:44 437.432
COMPASS 1 31 May 22:02:06 22:04:12 14° 269° (W) 22:06:20 437.405
HUMSAT D 31 May 22:09:05 22:12:58 45° 73° (ENE) 22:16:53 437.325/437.525
PHONESAT 2.4 31 May 22:09:39 22:12:48 86° 347° (NNW) 22:15:57 2401.200-2431.200
RS-15 31 May 22:13:48 22:22:18 21° 6° (N) 22:30:56 29.354- 29.394
HO-68 31 May 22:18:02 22:20:57 13° 272° (W) 22:23:53 435.675
Oscar 11 31 May 22:19:12 22:22:51 27° 264° (W) 22:26:32 145.826/435.025
AIST 1 31 May 22:27:15 22:29:25 13° 290° (WNW) 22:31:37
GONETS M04 31 May 22:37:00 22:45:39 60° 282° (WNW) 22:54:17
ZACube-1 31 May 22:44:05 22:46:43 16° 267° (W) 22:49:22 437.345
UNISAT 6 31 May 22:45:12 22:48:56 28° 96° (E) 22:52:43 437.425
DX 1 31 May 22:47:37 22:49:56 14° 63° (ENE) 22:52:14 434.975-435.025
CUBEBUG 1 31 May 22:49:04 22:52:02 18° 66° (ENE) 22:55:01 437.445
CUSAT 1 31 May 22:49:28 22:56:53 79° 263° (W) 23:02:43 437.405
50 SAT 31 May 22:50:24 22:52:37 16° 67° (ENE) 22:54:52 437.505
TIGRISAT 31 May 22:51:00 22:54:50 30° 97° (E) 22:58:43 435.000
AIST 2 31 May 22:58:46 23:02:00 22° 248° (WSW) 23:05:13 435.215
ESTCUBE 1 31 May 23:05:46 23:09:56 38° 71° (ENE) 23:14:08 437.505/2401.250
ISS 31 May 23:06:28 23:07:33 11° 355° (N) 23:08:38 145.825
Cosmos 2499 31 May 23:06:56 23:14:08 59° 282° (WNW) 23:21:56 435.465 / 435.565
VELOX 1 31 May 23:07:55 23:11:41 27° 68° (ENE) 23:15:27 145.980
NANOSAT C BR1 31 May 23:24:39 23:26:07 12° 91° (E) 23:27:36 145.865
ANTELSAT 31 May 23:25:47 23:30:08 80° 101° (ESE) 23:34:34 437.575/2403.000
DANDE 31 May 23:26:04 23:34:26 82° 263° (W) 23:41:31 436.750
UKube-1 31 May 23:26:08 23:29:52 29° 69° (ENE) 23:33:36 .
AISAT 31 May 23:43:51 23:48:18 71° 75° (ENE) 23:52:46 437.250
SO-50 31 May 23:44:11 23:49:05 85° 121° (ESE) 23:54:01 436.795
PHONESAT 2.4 31 May 23:46:26 23:49:35 85° 189° (S) 23:52:42 2401.200-2431.200
HUMSAT D 31 May 23:46:56 23:48:51 13° 269° (W) 23:50:46 437.325/437.525
BUGSAT 1 31 May 23:58:49 00:00:12 11° 91° (E) 00:01:33 437.445
DUCHIFAT 1 31 May 23:59:03 00:02:39 28° 96° (E) 00:06:15 145.980
DX 1 01 Jun 00:21:21 00:25:39 55° 259° (W) 00:29:58 434.975-435.025
UNISAT 6 01 Jun 00:22:00 00:25:33 25° 291° (WNW) 00:29:08 437.425
50 SAT 01 Jun 00:22:49 00:26:05 31° 263° (W) 00:29:23 437.505
CUBEBUG 1 01 Jun 00:23:47 00:27:59 42° 261° (W) 00:32:13 437.445
TIGRISAT 01 Jun 00:27:58 00:31:23 23° 292° (WNW) 00:34:50 435.000
SPROUT 01 Jun 00:28:13 00:32:30 81° 77° (ENE) 00:36:48 437.525
RS-15 01 Jun 00:28:23 00:39:41 40° 39° (NE) 00:51:00 29.354- 29.394
CUSAT 1 01 Jun 00:35:05 00:37:17 12° 285° (WNW) 00:39:23 437.405
TISAT 1 01 Jun 00:35:11 00:38:40 26° 69° (ENE) 00:42:10 437.305
QB50P1 01 Jun 00:42:24 00:46:36 80° 283° (WNW) 00:50:48 145.935-145.965
POPSAT HIP 1 01 Jun 00:42:29 00:46:41 81° 283° (WNW) 00:50:52 437.405
GONETS M04 01 Jun 00:42:51 00:44:35 11° 304° (NW) 00:46:19
ISS 01 Jun 00:43:09 00:45:06 15° 16° (NNE) 00:47:04 145.825
ESTCUBE 1 01 Jun 00:43:36 00:46:52 19° 267° (W) 00:50:09 437.505/2401.250
VELOX 1 01 Jun 00:44:18 00:48:04 27° 264° (W) 00:51:52 145.980
QB50P2 01 Jun 00:46:29 00:50:41 68° 285° (WNW) 00:54:51 145.880/145.840
POLYITAN 1 01 Jun 00:48:59 00:53:09 66° 286° (WNW) 00:57:19 437.675
NANOSAT C BR1 01 Jun 00:58:05 01:02:11 54° 286° (WNW) 01:06:16 145.865
UKube-1 01 Jun 01:02:20 01:05:52 24° 264° (W) 01:09:24 .
YUBILEINY 01 Jun 01:05:28 01:06:15 10° 55° (NE) 01:07:02 435.215
JAS-2 01 Jun 01:08:46 01:15:15 35° 94° (E) 01:21:01 435.910
DANDE 01 Jun 01:11:27 01:15:46 16° 283° (WNW) 01:19:49 436.750
PHONESAT 2.4 01 Jun 01:23:24 01:26:06 27° 206° (SSW) 01:28:47 2401.200-2431.200
Oscar 19 01 Jun 01:24:13 01:27:36 17° 92° (E) 01:30:57 437.125/150
AISAT 01 Jun 01:24:59 01:25:14 10° 270° (W) 01:25:28 437.250
SO-50 01 Jun 01:27:12 01:30:13 16° 320° (NW) 01:33:14 436.795
BUGSAT 1 01 Jun 01:31:58 01:35:52 50° 287° (WNW) 01:39:45 437.445
DUCHIFAT 1 01 Jun 01:34:55 01:38:13 23° 292° (WNW) 01:41:32 145.980
SWISSCUBE 01 Jun 01:59:58 02:04:29 46° 72° (ENE) 02:09:04 437.505
Cosmos 2491 01 Jun 02:03:45 02:05:48 11° 73° (ENE) 02:07:52 435.465 / 435.565
ITUPSAT 1 01 Jun 02:08:46 02:13:22 51° 72° (ENE) 02:17:59 437.325
TISAT 1 01 Jun 02:10:44 02:14:15 25° 264° (W) 02:17:46 437.305
ISS 01 Jun 02:18:53 02:22:06 56° 35° (NE) 02:25:19 145.825
Gurwin Techsat 1B 01 Jun 02:25:28 02:30:04 29° 96° (E) 02:34:38 435.225
BEESAT 01 Jun 02:28:50 02:33:34 84° 77° (ENE) 02:38:22 436.000
RS-15 01 Jun 02:41:01 02:53:16 74° 244° (WSW) 03:05:25 29.354- 29.394
Cosmos 2504 01 Jun 02:47:47 02:52:21 15° 61° (ENE) 02:56:59 435.465 / 435.565
JAS-2 01 Jun 02:53:36 03:00:19 41° 294° (WNW) 03:06:19 435.910
YUBILEINY 01 Jun 02:56:37 03:05:14 58° 78° (ENE) 03:13:51 435.215
MOZHAYETS 4 01 Jun 02:58:02 03:00:43 16° 64° (ENE) 03:03:23
Oscar 19 01 Jun 03:02:13 03:07:14 53° 288° (WNW) 03:12:12 437.125/150
SWISSCUBE 01 Jun 03:39:21 03:42:30 18° 267° (W) 03:45:41 437.505
KKS-1 01 Jun 03:41:05 03:45:28 58° 73° (ENE) 03:49:52 437.445
ITUPSAT 1 01 Jun 03:48:33 03:51:29 16° 268° (W) 03:54:25 437.325
Cosmos 2491 01 Jun 03:52:07 04:00:49 68° 93° (E) 04:09:33 435.465 / 435.565
ITAMSAT 1 01 Jun 03:54:30 03:59:45 76° 104° (ESE) 04:04:58 435.822/435.867
ISS 01 Jun 03:56:19 03:58:13 15° 230° (SW) 04:00:07 145.825
STARS 01 Jun 04:03:12 04:07:28 51° 73° (ENE) 04:11:44 437.465
Gurwin Techsat 1B 01 Jun 04:05:14 04:10:00 35° 292° (WNW) 04:14:46 435.225
AO-7 01 Jun 04:18:05 04:26:04 46° 101° (E) 04:33:59 29.400- 29.500
MOZHAYETS 4 01 Jun 04:32:59 04:37:25 53° 261° (W) 04:41:54
CUBESAT XI-V 01 Jun 04:36:15 04:39:35 20° 66° (ENE) 04:42:57 437.345
Cosmos 2504 01 Jun 04:38:34 04:47:10 75° 81° (E) 04:56:04 435.465 / 435.565
YUBILEINY 01 Jun 04:54:16 05:01:28 30° 277° (W) 05:08:41 435.215
RS-15 01 Jun 04:56:55 05:03:31 17° 264° (W) 05:10:08 29.354- 29.394
HORYU 2 01 Jun 04:59:56 05:03:18 21° 95° (E) 05:06:39 437.375
AO-85 01 Jun 05:10:27 05:15:54 75° 120° (ESE) 05:21:16 145.980
KKS-1 01 Jun 05:20:30 05:22:23 12° 269° (W) 05:24:17 437.445
ITAMSAT 1 01 Jun 05:35:53 05:38:33 14° 300° (WNW) 05:41:12 435.822/435.867
STARS 01 Jun 05:41:50 05:44:06 14° 268° (W) 05:46:23 437.465
Cosmos 2491 01 Jun 05:51:17 05:58:21 26° 292° (WNW) 06:05:28 435.465 / 435.565
NOAA 18 01 Jun 06:02:55 06:06:12 16° 92° (E) 06:09:28 137.9125
CUTE-I 01 Jun 06:07:58 06:10:55 15° 91° (E) 06:13:50 437.470
AO-7 01 Jun 06:11:03 06:18:41 41° 299° (WNW) 06:26:19 29.400- 29.500
CUBESAT XI-V 01 Jun 06:12:12 06:16:38 43° 262° (W) 06:21:08 437.345
STRAND 1 01 Jun 06:19:59 06:23:41 21° 64° (ENE) 06:27:24 437.568
Cosmos 2504 01 Jun 06:33:26 06:39:42 23° 279° (W) 06:46:08 435.465 / 435.565
HORYU 2 01 Jun 06:35:53 06:39:55 34° 290° (WNW) 06:43:56 437.375
NOAA 15 01 Jun 06:38:16 06:43:17 41° 99° (E) 06:48:14 137.62
SO-50 01 Jun 06:38:37 06:39:44 11° 35° (NE) 06:40:51 436.795
LilacSat-2 01 Jun 06:38:38 06:41:42 23° 95° (E) 06:44:46 437.200
AO-85 01 Jun 06:53:00 06:56:57 20° 317° (NW) 07:00:49 145.980
GONETS M04 01 Jun 06:54:28 06:57:55 13° 58° (ENE) 07:01:21
AIST 1 01 Jun 06:56:48 06:58:36 12° 69° (ENE) 07:00:24
Cubesat XI-IV 01 Jun 07:01:32 07:06:43 48° 99° (E) 07:11:54 437.490
GOMX 1 01 Jun 07:17:32 07:21:41 36° 96° (E) 07:25:37 467.674
BRITE-PL 01 Jun 07:19:06 07:24:04 89° 117° (ESE) 07:28:35 437.365/2234.400
DOVE 4 01 Jun 07:40:26 07:44:07 28° 95° (E) 07:47:41 437.250
NOAA 18 01 Jun 07:41:51 07:47:17 65° 288° (WNW) 07:52:43 137.9125
CUTE-I 01 Jun 07:46:05 07:51:25 67° 287° (WNW) 07:56:44 437.470
HO-68 01 Jun 07:54:53 07:59:53 20° 92° (E) 08:04:51 435.675
STRAND 1 01 Jun 07:57:36 08:02:30 48° 260° (W) 08:07:27 437.568
CUTE 1.7 + AOD 2 01 Jun 08:06:41 08:09:12 15° 92° (E) 08:11:42 437.475
LilacSat-2 01 Jun 08:12:55 08:15:55 22° 291° (WNW) 08:18:55 437.200
SO-50 01 Jun 08:16:34 08:21:14 61° 55° (NE) 08:25:43 436.795
NOAA 15 01 Jun 08:18:35 08:22:48 25° 295° (WNW) 08:27:00 137.62
O/OREOS (USA 219) 01 Jun 08:19:46 08:23:49 33° 105° (ESE) 08:27:54 437.305
AIST 1 01 Jun 08:32:20 08:36:34 53° 266° (W) 08:40:45
AUBIESAT-1 01 Jun 08:35:49 08:37:57 16° 100° (E) 08:40:06 437.475
PCSat 01 Jun 08:38:24 08:43:36 50° 113° (ESE) 08:48:50 145.827
Cubesat XI-IV 01 Jun 08:42:23 08:46:27 22° 296° (WNW) 08:50:31 437.490
PRISM 01 Jun 08:43:37 08:47:46 80° 257° (WSW) 08:51:58 437.425
M-CUBED/EXP-1 PRIME 01 Jun 08:46:36 08:49:27 27° 103° (ESE) 08:52:20 437.505
GONETS M04 01 Jun 08:47:54 08:56:35 68° 80° (E) 09:05:13
GOMX 1 01 Jun 08:56:17 08:59:30 19° 295° (WNW) 09:02:36 467.674
Cosmos 2499 01 Jun 08:57:38 09:06:07 51° 77° (ENE) 09:14:40 435.465 / 435.565
BRITE-PL 01 Jun 09:01:06 09:01:37 10° 302° (WNW) 09:02:06 437.365/2234.400
SEEDS 01 Jun 09:06:50 09:11:00 52° 100° (E) 09:15:10 437.485
CINEMA 3 01 Jun 09:09:30 09:13:40 84° 104° (ESE) 09:17:50 145.822/145.860
CANX-2 01 Jun 09:14:46 09:19:04 78° 284° (WNW) 09:23:22 2200.000
DOVE 4 01 Jun 09:18:22 09:21:42 22° 292° (WNW) 09:24:57 437.250
CUBEBUG 2 01 Jun 09:23:36 09:27:28 34° 97° (E) 09:31:23 437.445
FUNcube-1 01 Jun 09:30:49 09:33:46 18° 94° (E) 09:36:44 145.935
AAUSAT CUBESAT 2 01 Jun 09:40:18 09:44:31 73° 102° (ESE) 09:48:41 437.432
UWE-3 01 Jun 09:40:54 09:44:51 37° 98° (E) 09:48:51 435.000/436.395/437.385
HO-68 01 Jun 09:41:02 09:48:12 73° 289° (WNW) 09:55:21 435.675
CUTE 1.7 + AOD 2 01 Jun 09:41:09 09:45:15 44° 287° (WNW) 09:49:20 437.475
COMPASS 1 01 Jun 09:43:04 09:47:18 83° 285° (WNW) 09:51:31 437.405
UNISAT 6 01 Jun 09:43:52 09:47:15 23° 68° (ENE) 09:50:37 437.425
TIGRISAT 01 Jun 09:49:27 09:52:56 25° 69° (ENE) 09:56:25 435.000
SO-50 01 Jun 09:58:44 10:01:08 14° 252° (WSW) 10:03:29 436.795
O/OREOS (USA 219) 01 Jun 09:59:35 10:03:16 24° 301° (WNW) 10:06:57 437.305
BEESAT 2 01 Jun 10:01:36 10:04:25 19° 111° (ESE) 10:07:14 435.950
Oscar 11 01 Jun 10:06:10 10:10:27 54° 100° (E) 10:14:43 145.826/435.025
CUSAT 1 01 Jun 10:09:04 10:13:53 20° 80° (E) 10:19:09 437.405
AUBIESAT-1 01 Jun 10:09:44 10:12:29 25° 294° (WNW) 10:15:17 437.475
M-CUBED/EXP-1 PRIME 01 Jun 10:21:59 10:23:51 15° 298° (WNW) 10:25:44 437.505
PCSat 01 Jun 10:22:50 10:27:15 25° 311° (NW) 10:31:43 145.827
ANTELSAT 01 Jun 10:23:52 10:28:08 63° 74° (ENE) 10:32:22 437.575/2403.000
BEESAT 3 01 Jun 10:24:33 10:28:25 63° 119° (ESE) 10:32:21 437.485
ZACube-1 01 Jun 10:30:48 10:35:04 87° 277° (W) 10:39:23 437.345
SEEDS 01 Jun 10:44:05 10:46:15 14° 295° (WNW) 10:48:24 437.485
GONETS M04 01 Jun 10:46:03 10:52:34 24° 279° (W) 10:59:05
DUCHIFAT 1 01 Jun 10:50:48 10:53:52 20° 67° (ENE) 10:56:55 145.980
Cosmos 2499 01 Jun 10:51:13 10:58:54 36° 275° (W) 11:06:41 435.465 / 435.565
DANDE 01 Jun 10:52:03 10:56:16 19° 79° (ENE) 11:01:06 436.750
CUBEBUG 2 01 Jun 11:00:54 11:03:52 19° 293° (WNW) 11:06:52 437.445
DELFI C3 01 Jun 11:01:16 11:05:19 72° 283° (WNW) 11:09:19 145.870
FUNcube-1 01 Jun 11:06:13 11:10:06 36° 288° (WNW) 11:14:03 145.935
UWE-3 01 Jun 11:18:11 11:21:03 18° 293° (WNW) 11:23:57 435.000/436.395/437.385
UNISAT 6 01 Jun 11:20:03 11:23:50 29° 263° (W) 11:27:36 437.425
JAS-2 01 Jun 11:20:29 11:25:29 19° 56° (NE) 11:30:33 435.910
TIGRISAT 01 Jun 11:25:51 11:29:32 27° 264° (W) 11:33:11 435.000
HUMSAT D 01 Jun 11:28:10 11:32:23 82° 282° (WNW) 11:36:37 437.325/437.525
HO-68 01 Jun 11:31:14 11:34:42 14° 308° (NW) 11:38:10 435.675
QB50P1 01 Jun 11:33:48 11:37:59 68° 76° (ENE) 11:42:12 145.935-145.965
POPSAT HIP 1 01 Jun 11:33:57 11:38:08 67° 74° (ENE) 11:42:20 437.405
AISAT 01 Jun 11:36:23 11:38:40 14° 92° (E) 11:40:54 437.250
QB50P2 01 Jun 11:38:02 11:42:16 81° 74° (ENE) 11:46:30 145.880/145.840
BEESAT 2 01 Jun 11:38:18 11:41:59 36° 308° (NW) 11:45:42 435.950
POLYITAN 1 01 Jun 11:40:32 11:44:46 83° 76° (ENE) 11:48:59 437.675
Oscar 11 01 Jun 11:43:54 11:46:07 14° 296° (WNW) 11:48:19 145.826/435.025
CUSAT 1 01 Jun 11:48:05 11:54:53 78° 280° (W) 12:02:55 437.405
NANOSAT C BR1 01 Jun 11:49:04 11:53:17 84° 256° (WSW) 11:57:31 145.865
50 SAT 01 Jun 11:52:53 11:55:45 21° 95° (E) 11:58:37 437.505
BEESAT 3 01 Jun 12:04:23 12:06:31 14° 317° (NW) 12:08:40 437.485
ANTELSAT 01 Jun 12:04:33 12:05:14 10° 270° (W) 12:05:56 437.575/2403.000
DX 1 01 Jun 12:10:34 12:14:12 26° 96° (E) 12:17:49 434.975-435.025
CUBEBUG 1 01 Jun 12:13:00 12:17:01 35° 98° (E) 12:20:59 437.445
SPROUT 01 Jun 12:16:21 12:18:40 14° 92° (E) 12:20:59 437.525
BUGSAT 1 01 Jun 12:20:24 12:24:35 84° 255° (WSW) 12:28:45 437.445
DUCHIFAT 1 01 Jun 12:25:31 12:29:20 33° 263° (W) 12:33:09 145.980
DANDE 01 Jun 12:31:57 12:37:56 72° 282° (WNW) 12:45:38 436.750
VELOX 1 01 Jun 12:34:13 12:38:35 58° 101° (E) 12:42:55 145.980
ESTCUBE 1 01 Jun 12:35:07 12:39:42 88° 282° (WNW) 12:44:13 437.505/2401.250
Oscar 19 01 Jun 12:40:09 12:44:21 25° 66° (ENE) 12:48:31 437.125/150
UKube-1 01 Jun 12:49:05 12:53:21 56° 101° (E) 12:57:34 .
AIST 2 01 Jun 12:54:29 12:58:36 88° 121° (ESE) 13:02:46 435.215
JAS-2 01 Jun 13:01:47 13:09:19 85° 75° (ENE) 13:17:15 435.910
AISAT 01 Jun 13:11:09 13:15:26 51° 287° (WNW) 13:19:40 437.250
